Location: Poprad
(0.0000°N, 20.3000°E)
Time: 12:00:04
(UTC+01:00)

Daily predictions for brighter satellites

Satellite Brightness Start Highest point End
(mag) Time Altitude Azimuth Time Altitude Azimuth Time Altitude Azimuth
Ariane 44LP R/B 4.0 17:41:06 10° W 17:44:45 71° S 18:05:27 10° E
Atlas Centaur 2 3.9 17:38:02 10° WNW 17:46:08 53° SSW 17:53:21 10° SE
COSMOS 2455 4.4 17:45:01 10° SE 17:48:31 16° ESE 17:52:00 10° ENE
Nadezhda 4 Rocket 4.3 17:43:44 10° S 17:50:00 75° W 17:56:10 10° N
SL-08 R/B 4.1 17:48:27 10° N 17:52:57 54° WNW 17:57:33 10° SSW
Cosmos 2279 Rocket 4.0 17:50:30 10° N 17:56:43 88° E 18:02:55 10° S
Aureole 3 Rocket 4.5 17:55:54 10° NNW 17:58:50 30° W 18:01:32 10° SSW
Cosmos 2151 3.0 17:55:30 10° N 17:59:44 88° E 18:04:00 10° S
SL-16 R/B 3.4 17:56:54 10° NNE 18:00:44 19° ENE 18:04:34 10° ESE
Cosmos 1666 3.0 18:00:48 10° NNE 18:04:04 37° E 18:07:23 10° SSE
Cosmos 1933 3.4 18:01:48 10° S 18:05:43 53° E 18:09:36 10° NNE
Cosmos 1461 3.6 18:03:27 10° N 18:06:40 26° ENE 18:09:51 10° SE
Cosmos 1812 4.3 18:04:49 10° SSW 18:08:13 36° W 18:11:36 10° NNW
Cosmos 1844 3.8 18:05:34 10° S 18:11:17 66° ESE 18:17:00 10° NNE
Cosmos 1420 Rocket 4.0 18:07:52 10° S 18:12:57 59° ESE 18:18:02 10° NNE
Cosmos 1627 Rocket 4.4 18:07:30 10° S 18:13:38 80° E 18:19:49 10° N
Cosmos 1624 Rocket 4.2 18:09:41 10° S 18:14:51 54° ESE 18:19:56 10° NNE
Cosmos 1076 Rocket 3.9 18:13:00 10° NNW 18:17:17 66° W 18:21:34 10° S
ATLAS 5 CENTAUR R/B 2.8 18:11:10 10° NNW 18:17:54 65° ENE 18:25:24 10° SSE
OAO 3 Copernicus 4.5 18:13:16 10° SW 18:18:16 61° SE 18:21:54 18° ENE
Meteor 1-29 3.3 18:15:56 10° SE 18:18:17 27° ENE 18:19:30 19° NE
OAO 2 Rocket 3.3 18:14:09 10° SW 18:19:12 75° SE 18:22:59 18° ENE
CBERS 1 LM4 rocket 4.4 18:14:35 10° SSE 18:19:48 81° ENE 18:24:48 10° N
Timation 2 Rocket 4.0 18:14:24 10° SSW 18:20:34 81° WNW 18:26:32 10° NNE
NOAA 6 4.0 18:21:36 10° SSE 18:26:47 88° WSW 18:31:56 10° NNW
SL-4 R/B 3.1 18:24:24 10° S 18:26:56 20° SE 18:27:31 19° ESE
DELTA 2 R/B (1) 3.6 18:24:34 10° SW 18:30:07 69° SE 18:33:33 24° ENE
ARIANE 5 R/B 2.1 18:28:43 10° W 18:31:14 63° N 18:35:34 21° E
Cosmos 614 Rocket 3.8 18:29:31 10° N 18:34:39 80° ENE 18:39:46 10° SSE
YAOGAN 3 4.5 18:33:58 10° SSE 18:38:13 61° E 18:42:27 10° N
YAOGAN 1 2.7 18:34:21 10° SSE 18:38:28 46° ENE 18:42:16 12° N
CZ-4C R/B 3.3 18:40:31 34° NE 18:41:54 54° ESE 18:45:32 10° S
BLOCK DM-SL R/B 4.3 18:41:34 10° W 18:45:48 90° NNE 18:53:50 21° E
BREEZE-M DEB (TANK) 4.0 18:36:10 10° NNW 18:49:00 60° NE 18:51:20 27° ESE
Ariane H10 4.0 18:52:30 10° SW 18:54:36 26° SSE 18:55:12 24° SE
Cosmos 2221 3.4 18:51:33 10° SSW 18:55:42 49° W 18:59:44 10° NNW
Meteor 1-20 Rocket 4.1 18:50:49 10° N 18:56:26 87° E 19:02:13 10° S
HETE-2 4.4 18:54:02 10° W 18:58:04 66° N 18:58:12 65° NNE
ADEOS 4.1 18:54:22 10° S 18:59:30 61° WSW 19:04:37 10° NNW
SWIFT 2.0 18:56:27 10° WNW 19:00:27 87° SSW 19:00:43 78° SE
SeaSat 1 2.5 19:01:20 51° E 19:01:58 56° ESE 19:06:46 10° S
GPS 2-14 Rocket1 4.3 19:00:53 10° WNW 19:03:19 21° NNW 19:03:19 21° NNW
SPELTRA 3.5 19:05:02 10° W 19:08:44 63° S 19:12:12 30° ESE
Cosmos 1842 Rocket 3.4 19:04:30 10° S 19:08:50 86° W 19:09:13 73° N
Cosmos 2278 Rocket 4.4 19:05:59 10° SE 19:06:01 10° SE 19:06:01 10° SE
H-2A ROCKET BODY 1.5 19:07:15 10° WNW 19:09:57 79° SSW 19:11:25 44° SE
Maqsat-H 2.5 19:09:32 10° WSW 19:12:59 43° S 19:13:47 37° SSE
Meteor 2-12 Rocket 4.4 19:07:28 10° S 19:13:26 58° E 19:13:50 57° ENE
Ariane 44P Rocket 2.9 19:14:03 10° W 19:21:22 62° WNW 19:21:22 62° WNW
Cosmos 1452 Rocket 3.6 19:19:37 10° S 19:24:08 63° SSE 19:24:08 63° SSE
Cosmos 2266 Rocket 3.8 19:20:53 10° S 19:27:14 87° E 19:28:11 66° N
FALCON 9 R/B 3.8 19:27:23 10° SSW 19:27:40 12° SSW 19:27:40 12° SSW
PAYLOAD B 4.1 19:26:34 10° S 19:32:04 82° WSW 19:32:07 82° W
COSMOS 2455 3.9 19:28:36 10° SW 19:34:10 40° WNW 19:36:19 30° NNW
ATLAS 2A CENTAUR R/B 4.1 19:32:34 10° WNW 19:37:27 88° NNE 19:59:26 10° ESE
SL-16 R/B 4.0 19:39:43 10° NW 19:44:32 29° WSW 19:49:24 10° SSW
USA 267 3.6 19:47:30 52° SSE 19:47:30 52° SSE 19:52:53 10° SSW
Ariane H10 4.4 19:51:08 10° WNW 20:25:47 - E 19:52:56 35° WNW
